Tracking 35274 objects as of 10-Sep-2026
HD Live streaming from Space Station
objects crossing your sky now

LEMUR 2 HANCOM-1


LEMUR 2 HANCOM-1 is no longer on orbit
LEMUR 2 HANCOM-1 is classified as:


NORAD ID: 52740
Int'l Code: 2022-057J
Launch date: May 25, 2022
Source: United States (US)
Launch site: AIR FORCE EASTERN TEST RANGE (AFETR)
Decay date: 2024-07-26
Your satellite tracking list
Your tracking list is empty




NASA's NSSDC Master Catalog

Two Line Element Set (TLE):
1 52740U 22057J   24208.88192675  .18870602  27213-5  16981-3 0  9996
2 52740  97.5705 348.6118 0015084 280.2009  79.7594 16.50998325121365
Source of the keplerian elements: AFSPC